• In Russia
  • List of Countries
  • For 7 days
  • Water Temperature
  • Satellite Maps
  • Weather Map
  • Weather Widgets
  • user-avatar
    Login

    Hourly Weather Elovka

    Today, 20 January, Sunday

    Time Temperature Precipitation Wind Pressure Humidity
    00:00 -16°C° 0 mm 1 mps 722 mmHg 93%
    01:00 -18°C° 0 mm 2 mps 721 mmHg 93%
    02:00 -19°C° 0 mm 2 mps 721 mmHg 93%
    03:00 -17°C° 0 mm 1 mps 720 mmHg 92%
    04:00 -18°C° 0 mm 1 mps 720 mmHg 92%
    05:00 -18°C° 0 mm 1 mps 720 mmHg 90%
    06:00 -18°C° 0 mm 1 mps 720 mmHg 89%
    07:00 -18°C° 0 mm 1 mps 720 mmHg 87%
    08:00 -16°C° 0 mm 1 mps 720 mmHg 84%
    09:00 -14°C° 0 mm 1 mps 720 mmHg 80%
    10:00 -12°C° 0 mm 1 mps 720 mmHg 77%
    11:00 -10°C° 0 mm 1 mps 720 mmHg 75%
    12:00 -9°C° 0 mm 2 mps 720 mmHg 73%
    13:00 -7°C° 0 mm 2 mps 720 mmHg 71%
    14:00 -7°C° 0 mm 2 mps 720 mmHg 75%
    15:00 -7°C° 0 mm 1 mps 720 mmHg 79%
    16:00 -8°C° 0 mm 1 mps 720 mmHg 82%
    17:00 -9°C° 0 mm 1 mps 720 mmHg 82%
    18:00 -10°C° 0 mm 1 mps 720 mmHg 82%
    19:00 -11°C° 0 mm 1 mps 720 mmHg 82%
    20:00 -12°C° 0 mm 1 mps 720 mmHg 82%
    21:00 -13°C° 0 mm 1 mps 719 mmHg 81%
    22:00 -13°C° 0 mm 1 mps 719 mmHg 80%
    23:00 -13°C° 0 mm 1 mps 719 mmHg 79%

    Tomorrow, 21 January, Monday

    Time Temperature Precipitation Wind Pressure Humidity
    00:00 -14°C° 0 mm 1 mps 718 mmHg 78%
    01:00 -14°C° 0 mm 1 mps 718 mmHg 77%
    02:00 -14°C° 0 mm 1 mps 718 mmHg 77%
    03:00 -14°C° 0 mm 1 mps 718 mmHg 78%
    04:00 -14°C° 0 mm 1 mps 717 mmHg 79%
    05:00 -14°C° 0 mm 1 mps 717 mmHg 78%
    06:00 -15°C° 0 mm 1 mps 717 mmHg 78%
    07:00 -15°C° 0 mm 1 mps 717 mmHg 77%
    08:00 -13°C° 0 mm 1 mps 717 mmHg 77%
    09:00 -12°C° 0 mm 1 mps 717 mmHg 77%
    10:00 -10°C° 0 mm 1 mps 718 mmHg 76%
    11:00 -9°C° 0.1 mm 2 mps 718 mmHg 79%
    12:00 -7°C° 0.1 mm 2 mps 717 mmHg 82%
    13:00 -6°C° 0.1 mm 2 mps 717 mmHg 85%
    14:00 -5°C° 0.1 mm 2 mps 717 mmHg 86%
    15:00 -5°C° 0.1 mm 2 mps 718 mmHg 88%
    16:00 -5°C° 0.1 mm 2 mps 718 mmHg 90%
    17:00 -6°C° 0 mm 2 mps 718 mmHg 91%
    18:00 -7°C° 0 mm 2 mps 718 mmHg 91%
    19:00 -7°C° 0 mm 2 mps 718 mmHg 92%
    20:00 -8°C° 0 mm 2 mps 718 mmHg 93%
    21:00 -8°C° 0 mm 2 mps 719 mmHg 93%
    22:00 -8°C° 0 mm 1 mps 719 mmHg 94%
    23:00 -8°C° 0 mm 1 mps 719 mmHg 94%

    Day after tomorrow, 22 January, Tuesday

    Time Temperature Precipitation Wind Pressure Humidity
    00:00 -8°C° 0 mm 1 mps 719 mmHg 94%
    01:00 -9°C° 0 mm 1 mps 719 mmHg 94%
    02:00 -9°C° 0 mm 1 mps 719 mmHg 94%
    03:00 -10°C° 0 mm 1 mps 719 mmHg 94%
    04:00 -10°C° 0 mm 1 mps 719 mmHg 94%
    05:00 -11°C° 0 mm 1 mps 719 mmHg 94%
    06:00 -11°C° 0 mm 1 mps 719 mmHg 94%
    07:00 -11°C° 0 mm 0 mps 719 mmHg 94%
    08:00 -10°C° 0 mm 1 mps 719 mmHg 92%
    09:00 -9°C° 0 mm 1 mps 720 mmHg 90%
    10:00 -8°C° 0 mm 1 mps 720 mmHg 87%
    11:00 -7°C° 0 mm 1 mps 720 mmHg 85%
    12:00 -4°C° 0 mm 1 mps 720 mmHg 82%
    13:00 -3°C° 0 mm 1 mps 719 mmHg 79%
    14:00 -4°C° 0 mm 1 mps 719 mmHg 82%
    15:00 -6°C° 0 mm 1 mps 720 mmHg 85%
    16:00 -8°C° 0 mm 1 mps 720 mmHg 88%
    17:00 -8°C° 0 mm 0 mps 720 mmHg 88%
    18:00 -9°C° 0 mm 0 mps 720 mmHg 88%
    19:00 -10°C° 0 mm 0 mps 720 mmHg 87%
    20:00 -10°C° 0 mm 0 mps 721 mmHg 86%
    21:00 -11°C° 0 mm 0 mps 721 mmHg 85%
    22:00 -11°C° 0 mm 0 mps 721 mmHg 84%
    23:00 -11°C° 0 mm 0 mps 721 mmHg 85%

    23 January, Wednesday

    Time Temperature Precipitation Wind Pressure Humidity
    00:00 -11°C° 0 mm 1 mps 722 mmHg 86%
    01:00 -11°C° 0 mm 1 mps 722 mmHg 87%
    02:00 -10°C° 0 mm 1 mps 722 mmHg 89%
    03:00 -10°C° 0 mm 1 mps 723 mmHg 91%
    04:00 -9°C° 0 mm 1 mps 723 mmHg 93%
    05:00 -9°C° 0 mm 1 mps 723 mmHg 93%
    06:00 -9°C° 0 mm 1 mps 724 mmHg 94%
    07:00 -9°C° 0 mm 1 mps 724 mmHg 94%
    08:00 -9°C° 0 mm 2 mps 724 mmHg 93%
    09:00 -8°C° 0 mm 2 mps 725 mmHg 92%
    10:00 -8°C° 0 mm 2 mps 725 mmHg 91%
    11:00 -7°C° 0 mm 2 mps 725 mmHg 88%
    12:00 -7°C° 0 mm 2 mps 725 mmHg 85%
    13:00 -6°C° 0 mm 2 mps 725 mmHg 82%
    14:00 -7°C° 0 mm 2 mps 726 mmHg 85%
    15:00 -8°C° 0 mm 2 mps 726 mmHg 88%
    16:00 -9°C° 0 mm 2 mps 726 mmHg 91%
    17:00 -9°C° 0 mm 1 mps 727 mmHg 92%
    18:00 -11°C° 0 mm 1 mps 727 mmHg 93%
    19:00 -12°C° 0 mm 1 mps 728 mmHg 94%
    20:00 -12°C° 0 mm 1 mps 728 mmHg 94%
    21:00 -13°C° 0 mm 1 mps 728 mmHg 94%
    22:00 -13°C° 0 mm 1 mps 729 mmHg 94%
    23:00 -13°C° 0 mm 1 mps 729 mmHg 94%

    24 January, Thursday

    Time Temperature Precipitation Wind Pressure Humidity
    00:00 -14°C° 0 mm 1 mps 729 mmHg 93%
    01:00 -14°C° 0 mm 0 mps 729 mmHg 93%
    02:00 -15°C° 0 mm 0 mps 729 mmHg 93%
    03:00 -15°C° 0 mm 0 mps 729 mmHg 92%
    04:00 -15°C° 0 mm 0 mps 729 mmHg 91%
    05:00 -16°C° 0 mm 0 mps 729 mmHg 91%
    06:00 -16°C° 0 mm 1 mps 729 mmHg 90%
    07:00 -16°C° 0 mm 1 mps 729 mmHg 90%
    08:00 -14°C° 0 mm 1 mps 730 mmHg 88%
    09:00 -13°C° 0 mm 1 mps 730 mmHg 87%
    10:00 -11°C° 0 mm 1 mps 730 mmHg 86%
    11:00 -10°C° 0 mm 1 mps 729 mmHg 85%
    12:00 -10°C° 0 mm 2 mps 729 mmHg 84%
    13:00 -9°C° 0 mm 2 mps 729 mmHg 83%
    14:00 -10°C° 0 mm 2 mps 728 mmHg 85%
    15:00 -12°C° 0 mm 2 mps 728 mmHg 88%
    16:00 -13°C° 0 mm 2 mps 728 mmHg 91%
    17:00 -14°C° 0 mm 2 mps 728 mmHg 92%
    18:00 -15°C° 0 mm 2 mps 728 mmHg 92%
    19:00 -16°C° 0 mm 2 mps 728 mmHg 93%
    20:00 -16°C° 0 mm 2 mps 728 mmHg 93%
    21:00 -16°C° 0 mm 2 mps 728 mmHg 94%
    22:00 -17°C° 0 mm 2 mps 728 mmHg 94%
    23:00 -17°C° 0 mm 2 mps 728 mmHg 94%

    25 January, Friday

    Time Temperature Precipitation Wind Pressure Humidity
    00:00 -17°C° 0 mm 2 mps 727 mmHg 93%
    01:00 -17°C° 0 mm 2 mps 727 mmHg 93%
    02:00 -18°C° 0 mm 2 mps 727 mmHg 93%
    03:00 -18°C° 0 mm 2 mps 727 mmHg 93%
    04:00 -18°C° 0 mm 2 mps 727 mmHg 93%
    05:00 -18°C° 0 mm 2 mps 727 mmHg 93%
    06:00 -19°C° 0 mm 2 mps 726 mmHg 92%
    07:00 -19°C° 0 mm 2 mps 726 mmHg 92%
    08:00 -18°C° 0 mm 2 mps 726 mmHg 89%
    09:00 -16°C° 0 mm 2 mps 726 mmHg 86%
    10:00 -15°C° 0 mm 2 mps 726 mmHg 83%
    11:00 -13°C° 0 mm 2 mps 726 mmHg 82%
    12:00 -12°C° 0 mm 2 mps 725 mmHg 81%
    13:00 -10°C° 0 mm 2 mps 725 mmHg 80%
    14:00 -10°C° 0 mm 1 mps 725 mmHg 83%
    15:00 -11°C° 0 mm 1 mps 725 mmHg 87%
    16:00 -12°C° 0 mm 1 mps 724 mmHg 90%
    17:00 -13°C° 0 mm 1 mps 724 mmHg 91%
    18:00 -14°C° 0 mm 1 mps 724 mmHg 91%
    19:00 -15°C° 0 mm 0 mps 724 mmHg 92%
    20:00 -16°C° 0 mm 0 mps 724 mmHg 91%
    21:00 -16°C° 0 mm 0 mps 724 mmHg 90%
    22:00 -16°C° 0 mm 0 mps 724 mmHg 89%
    23:00 -16°C° 0 mm 0 mps 724 mmHg 88%
    Show more